TimePDT,TemperatureF,Dew PointF,Humidity,Sea Level PressureIn,VisibilityMPH,Wind Direction,Wind SpeedMPH,Gust SpeedMPH,PrecipitationIn,Events,Conditions,WindDirDegrees,DateUTC
12:53 AM,50.0,45.0,83,30.21,7.0,Calm,Calm,-,N/A,,Overcast,0,2013-05-09 07:53:00
1:53 AM,50.0,45.0,83,30.22,6.0,Calm,Calm,-,N/A,,Haze,0,2013-05-09 08:53:00
2:53 AM,50.0,45.0,83,30.22,6.0,NE,3.5,-,N/A,,Haze,40,2013-05-09 09:53:00
3:53 AM,50.0,45.0,83,30.22,6.0,Calm,Calm,-,N/A,,Haze,0,2013-05-09 10:53:00
4:53 AM,50.0,45.0,83,30.22,6.0,Calm,Calm,-,N/A,,Haze,0,2013-05-09 11:53:00
5:53 AM,50.0,45.0,83,30.22,6.0,Calm,Calm,-,N/A,,Haze,0,2013-05-09 12:53:00
6:53 AM,50.0,45.0,83,30.23,5.0,Calm,Calm,-,N/A,,Haze,0,2013-05-09 13:53:00
7:53 AM,51.1,45.0,80,30.24,5.0,Calm,Calm,-,N/A,,Haze,0,2013-05-09 14:53:00
8:53 AM,52.0,46.0,80,30.24,6.0,WNW,4.6,-,N/A,,Haze,290,2013-05-09 15:53:00
9:53 AM,53.6,46.4,77,30.23,7.0,Calm,Calm,-,N/A,,Overcast,0,2013-05-09 16:53:00
10:14 AM,53.6,46.4,77,30.23,7.0,North,4.6,-,N/A,,Overcast,360,2013-05-09 17:14:00
10:53 AM,57.0,46.9,69,30.24,7.0,WSW,6.9,-,N/A,,Overcast,250,2013-05-09 17:53:00
11:00 AM,55.4,46.4,72,30.23,7.0,SSW,4.6,-,N/A,,Overcast,210,2013-05-09 18:00:00
11:35 AM,60.8,48.2,63,30.23,7.0,South,3.5,-,N/A,,Partly Cloudy,190,2013-05-09 18:35:00
11:53 AM,60.1,46.9,62,30.23,7.0,SSW,4.6,-,N/A,,Clear,210,2013-05-09 18:53:00
12:53 PM,61.0,48.0,62,30.23,6.0,WSW,10.4,-,N/A,,Haze,250,2013-05-09 19:53:00
1:53 PM,63.0,48.0,58,30.23,7.0,WNW,9.2,17.3,N/A,,Clear,290,2013-05-09 20:53:00
2:53 PM,62.1,46.9,58,30.22,7.0,WNW,10.4,-,N/A,,Clear,300,2013-05-09 21:53:00
3:53 PM,62.1,46.9,58,30.22,7.0,WNW,9.2,-,N/A,,Clear,290,2013-05-09 22:53:00
4:53 PM,60.8,46.4,59,30.20,7.0,Variable,5.8,-,N/A,,Clear,0,2013-05-09 23:53:00
5:53 PM,61.0,46.0,58,30.19,7.0,NW,5.8,-,N/A,,Clear,320,2013-05-10 00:53:00
6:53 PM,57.0,45.0,64,30.18,7.0,WNW,9.2,-,N/A,,Clear,290,2013-05-10 01:53:00
7:53 PM,53.1,44.1,71,30.18,7.0,NNW,9.2,-,N/A,,Clear,330,2013-05-10 02:53:00
8:53 PM,50.0,44.1,80,30.19,6.0,NW,6.9,-,N/A,,Haze,320,2013-05-10 03:53:00
9:53 PM,48.9,43.0,80,30.19,7.0,Calm,Calm,-,N/A,,Clear,0,2013-05-10 04:53:00
10:53 PM,48.2,42.8,82,30.20,7.0,WNW,3.5,-,N/A,,Clear,300,2013-05-10 05:53:00
11:41 PM,46.4,42.8,87,30.19,7.0,Calm,Calm,-,N/A,,Scattered Clouds,0,2013-05-10 06:41:00
11:53 PM,46.9,43.0,86,30.19,7.0,North,3.5,-,N/A,,Mostly Cloudy,10,2013-05-10 06:53:00